Regional Weather Roundup
Issued by NWS

Home | Current Version | Previous Version | Text Only | Print | Product List | Glossary Off
Versions: 1 2 3 4 5 6 7 8 9 10 11 12 13 14 15 16 17 18 19 20 21 22 23 24 25 26 27 28 29 30 31 32 33 34 35 36 37 38 39 40 41 42 43 44 45 46 47 48 49 50

000
ASUS43 KDTX 182210
RWRMI
MICHIGAN HOURLY REGIONAL WEATHER ROUNDUP
NATIONAL WEATHER SERVICE DETROIT/PONTIAC MI
600 PM EDT THU SEP 18 2014

NOTE: "FAIR" INDICATES FEW OR NO CLOUDS BELOW 12,000 FEET WITH NO
SIGNIFICANT WEATHER AND/OR OBSTRUCTION TO VISIBILITY.

MIZ047>049-052>055-059>063-066>070-074>076-081>083-182300-
SOUTHEAST LOWER MICHIGAN

CITY           SKY/WX    TMP DP  RH WIND       PRES   REMARKS
ADRIAN         SUNNY     65  51  60 VRB7      30.13S
ALMA           CLOUDY    57  49  75 NE9       30.18S
ANN ARBOR      PTSUNNY   66  48  52 N10       30.13S
BAD AXE        CLOUDY    52  44  73 NE9       30.20F
DETROIT CITY   CLOUDY    61  50  67 E12       30.15S
DETROIT        PTSUNNY   64  53  67 E9        30.14S
FLINT          CLOUDY    60  50  69 N7        30.17S
GROSSE ILE     SUNNY     63  54  72 NE10      30.13S
HILLSDALE      MOSUNNY   68  50  52 NE7       30.12F
HOWELL         MOSUNNY   59  50  71 N5        30.15S

CITY           SKY/WX    TMP DP  RH WIND       PRES   REMARKS
JACKSON        SUNNY     64  52  64 N5        30.14R
LAMBERTVILLE   PTSUNNY   66  52  59 E5        30.13S
LANSING        CLOUDY    61  51  70 NE9       30.16F
LAPEER         NOT AVBL
MASON          SUNNY     61  51  70 N7        30.15S
MONROE         PTSUNNY   64  52  63 E7        30.12R
MT. CLEMENS    PTSUNNY   58  51  77 NE12      30.14S
PONTIAC        PTSUNNY   59  49  69 NE9       30.15S
PORT HOPE        N/A     52  40  63 N8        30.20S
PORT HURON     PTSUNNY   55  46  71 NE12      30.18S
TRI CITIES     CLOUDY    56  45  66 NE8       30.20S
YPSILANTI      SUNNY     70  48  45 N10       30.14S
$$
MIZ043>046-050>051-056>058-064>065-071>073-077>080-182300-
SOUTHWEST LOWER MICHIGAN

CITY           SKY/WX    TMP DP  RH WIND       PRES   REMARKS
BATTLE CREEK   MOSUNNY   68  51  54 NE8       30.13S
BENTON HARBOR  SUNNY     65  50  58 VRB5      30.11F
BIG RAPIDS     PTSUNNY   60  53  79 E10       30.15S
COLDWATER      MOSUNNY   68  52  55 NE8       30.12S
HOLLAND        SUNNY     68  54  60 W6        30.13S
GRAND RAPIDS   MOSUNNY   63  54  72 NE12      30.15R
KALAMAZOO      SUNNY     70  49  47 NE8       30.13S
MARSHALL       SUNNY     65  51  59 NE5       30.12S
MUSKEGON       MOSUNNY   67  52  58 NW5       30.13F
$$
MIZ016>042-182300-
NORTHERN LOWER MICHIGAN

CITY           SKY/WX    TMP DP  RH WIND       PRES   REMARKS
ALPENA         MOSUNNY   50  39  66 E8        30.21F
BEAVER ISLAND  SUNNY     54  42  65 E6        30.18F
BELLAIRE       SUNNY     61  41  48 CALM      30.15F
CADILLAC       CLOUDY    61  46  58 CALM      30.13F
CHARLEVOIX     SUNNY     55  44  65 N9        30.19F
FRANKFORT      CLEAR     59  45  59 N6        30.16S
GAYLORD        SUNNY     55  37  50 VRB3      30.17S
GRAYLING       SUNNY     56  40  54 CALM      30.17F
HARBOR SPRINGS SUNNY     57  37  47 E6        30.17F
HOUGHTON LAKE  SUNNY     58  43  57 CALM      30.16F
MANISTEE       SUNNY     59  46  63 NW8       30.15F
OSCODA         CLOUDY    51  39  63 NE8       30.20F
PELLSTON       SUNNY     55  40  56 NE12      30.18F
TRAVERSE CITY  MOSUNNY   59  42  53 NE8       30.14F
$$
MIZ007>008-015-182300-
EASTERN UPPER MICHIGAN

CITY           SKY/WX    TMP DP  RH WIND       PRES   REMARKS
KINROSS        MOSUNNY   52  37  58 E12       30.19F
MACKINAC ISLAN SUNNY     49  37  64 E12G17    30.19F
NEWBERRY       SUNNY     52  37  55 S6        30.17F
S. S. MARIE    SUNNY     52  33  48 VRB6      30.19F
$$
MIZ004>006-011>014-085-182300-
CENTRAL UPPER MICHIGAN

CITY           SKY/WX    TMP DP  RH WIND       PRES   REMARKS
MANISTIQUE     MOSUNNY   52  41  65 SE5       30.18S
ESCANABA       SUNNY     52  39  62 SE9       30.17F
MENOMINEE      MOSUNNY   54  43  66 E7        30.15F
SAWYER-GWINN   SUNNY     57  37  47 S7        30.14S
$$
MIZ001>003-009>011-084-182300-
WESTERN UPPER MICHIGAN

CITY           SKY/WX    TMP DP  RH WIND       PRES   REMARKS
IRON MOUNTAIN  CLOUDY    56  41  57 S8        30.13S
HOUGHTON         N/A     47  38  71 E12       30.12F
COPPER HARBOR    N/A     47  37  68 S8        30.15F
IRONWOOD       CLOUDY    54  48  82 S6        30.07F
$$

ABBREVIATIONS USED IN REMARKS
   TC - TEMPERATURE IN CELSIUS
  WCI - WIND CHILL INDEX
   HX - HEAT INDEX
  VSB - VISIBILITY




USA.gov is the U.S. government's official web portal to all federal, state and local government web resources and services.